TimeCDT,TemperatureF,Dew PointF,Humidity,Sea Level PressureIn,VisibilityMPH,Wind Direction,Wind SpeedMPH,Gust SpeedMPH,PrecipitationIn,Events,Conditions,WindDirDegrees,DateUTC
12:56 AM,34.9,21.0,57,30.06,10.0,NNW,4.6,-,N/A,,Clear,330,2013-03-21 05:56:00
1:56 AM,32.0,25.2,76,30.06,10.0,North,6.9,-,N/A,,Clear,360,2013-03-21 06:56:00
2:56 AM,31.1,26.1,82,30.08,10.0,North,4.6,-,N/A,,Clear,360,2013-03-21 07:56:00
3:56 AM,30.0,23.0,75,30.07,10.0,NNE,5.8,-,N/A,,Clear,20,2013-03-21 08:56:00
4:56 AM,28.0,20.1,72,30.08,10.0,NNE,4.6,-,N/A,,Clear,30,2013-03-21 09:56:00
5:56 AM,27.1,18.1,69,30.09,10.0,North,6.9,-,N/A,,Clear,10,2013-03-21 10:56:00
6:56 AM,25.2,17.1,71,30.12,10.0,NNE,4.6,-,N/A,,Clear,20,2013-03-21 11:56:00
7:56 AM,27.1,18.1,69,30.13,10.0,North,4.6,-,N/A,,Clear,10,2013-03-21 12:56:00
9:56 AM,32.9,12.0,42,30.14,10.0,NNE,11.5,-,N/A,,Clear,30,2013-03-21 14:56:00
10:56 AM,34.9,11.1,37,30.12,10.0,Variable,6.9,-,N/A,,Clear,0,2013-03-21 15:56:00
11:56 AM,38.8,10.0,31,30.11,10.0,Variable,5.8,-,N/A,,Clear,0,2013-03-21 16:56:00
12:56 PM,41.9,10.0,27,30.10,10.0,NW,10.4,-,N/A,,Clear,320,2013-03-21 17:56:00
1:56 PM,43.9,9.1,24,30.06,10.0,Variable,4.6,-,N/A,,Partly Cloudy,0,2013-03-21 18:56:00
2:56 PM,45.0,9.1,23,30.04,10.0,NW,5.8,-,N/A,,Clear,320,2013-03-21 19:56:00
3:56 PM,47.8,10.0,22,30.01,10.0,Variable,5.8,-,N/A,,Clear,0,2013-03-21 20:56:00
4:56 PM,47.8,10.0,22,30.00,10.0,NNE,4.6,-,N/A,,Clear,20,2013-03-21 21:56:00
5:56 PM,45.9,12.0,25,30.01,10.0,Calm,Calm,-,N/A,,Clear,0,2013-03-21 22:56:00
6:56 PM,43.9,14.0,30,30.00,10.0,NE,3.5,-,N/A,,Scattered Clouds,50,2013-03-21 23:56:00
7:56 PM,41.9,18.1,38,30.02,10.0,Calm,Calm,-,N/A,,Clear,0,2013-03-22 00:56:00
8:56 PM,41.9,18.1,38,30.01,10.0,ENE,3.5,-,N/A,,Clear,70,2013-03-22 01:56:00
9:56 PM,41.0,18.1,40,30.03,10.0,Calm,Calm,-,N/A,,Clear,0,2013-03-22 02:56:00
10:45 PM,39.2,24.8,56,30.02,10.0,North,6.9,-,0.00,,Overcast,360,2013-03-22 03:45:00
10:56 PM,38.8,25.2,58,30.06,5.0,NNE,4.6,-,0.00,Rain,Rain,20,2013-03-22 03:56:00
11:08 PM,37.4,28.4,70,30.03,9.0,NNW,6.9,-,0.00,Rain,Light Rain,340,2013-03-22 04:08:00
11:31 PM,35.6,30.2,81,30.04,3.0,North,4.6,-,0.00,Rain,Rain,10,2013-03-22 04:31:00
11:56 PM,34.0,31.1,89,30.06,5.0,North,3.5,-,0.01,Rain,Rain,10,2013-03-22 04:56:00